[Iaude] MPEC Y87: 2022 BB3 [a=1.04,e=0.32,i=11.0,H=22.91]

mpec at marsden.cfa.harvard.edu mpec at marsden.cfa.harvard.edu
Tue Dec 26 09:10:47 EST 2023


M.P.E.C. 2023-Y87                             Issued 2023 December 26, 14:09 UT

     The Minor Planet Electronic Circulars contain information on unusual
         minor planets, routine data on comets and natural satellites,
         and occasional editorial announcements.  They are published
    on behalf of Division F of the International Astronomical Union by the
          Minor Planet Center, Smithsonian Astrophysical Observatory,
                          Cambridge, MA 02138, U.S.A.
			  
             Prepared using the Tamkin Foundation Computer Network

                              MPC at CFA.HARVARD.EDU
            URL https://www.minorplanetcenter.net/    ISSN 1523-6714

                                    2022 BB3                                    


                           Revision to MPEC 2022-B98                            

Additional Observations:
     K22B03B  C2021 01 15.62083613 20 35.074+09 26 35.60         22.40GVEY087F51
     K22B03B  C2021 01 15.63217413 20 38.111+09 26 36.95         22.47GVEY087F51
     K22B03B  C2023 11 22.55643305 55 24.177+02 46 35.40         22.06GVEY087F52
     K22B03B  C2023 11 22.56954005 55 22.050+02 46 40.95         23.15GVEY087F52
     K22B03B  C2023 11 22.58272905 55 19.915+02 46 46.74         22.32GVEY087F52
     K22B03B  C2023 12 13.31737804 51 10.503+07 07 32.77         22.38GVEY087F51
     K22B03B  C2023 12 13.34184604 51 05.597+07 07 57.31         21.67GVEY087F51
     K22B03B  C2023 12 13.35415704 51 03.107+07 08 09.57         22.57GVEY087F51
     K22B03B 0C2023 12 18.43664904 35 17.367+08 35 48.69         22.62GVEY087T12
     K22B03B 0C2023 12 18.54346604 34 57.733+08 37 40.36         22.57GVEY087T12

Observer details:
F51 Pan-STARRS 1, Haleakala.  Observers J. Herman, T. Lowe, P. Minguez, A.
    Schultz, I. Smith.  Measurers K. Chambers, T. de Boer, J. Fairlamb, H.
    Gao, M. Huber, C.-C. Lin, E. Magnier, Y. Ramanjooloo, R. Wainscoat, R.
    Weryk.  1.8-m Ritchey-Chretien + CCD.
F52 Pan-STARRS 2, Haleakala.  Observers J. Herman, T. Lowe, P. Minguez, A.
    Schultz, I. Smith.  Measurers K. Chambers, T. de Boer, J. Fairlamb, H.
    Gao, M. Huber, C.-C. Lin, E. Magnier, Y. Ramanjooloo, R. Wainscoat, R.
    Weryk.  1.8-m Ritchey-Chretien + CCD.
T12 University of Hawaii 88-inch telescope, Maunakea.  Observer D. J. Tholen.
    2.24-m f/10.1 reflector + 2112 x 2112 pixels STA1600 10k CCD.

First and last observations above in comparison with prediction:
Residuals in seconds of arc, reference and Delta-T
210115 F51 24.0+  8.3+    231218 T12 32.3+ 15.0+    MPO740993   -0.00 days

Orbital elements:
2022 BB3                                                 Earth MOID = 0.1679 AU
Epoch 2023 Sept. 13.0 TT = JDT 2460200.5                Veres                   
M  82.95162              (2000.0)            P               Q                  
n   0.92355228     Peri.  163.40924     -0.08333812     +0.97869723             
a   1.0443075      Node   101.51255     -0.93466205     -0.01146091             
e   0.3161850      Incl.   11.03954     -0.34563220     -0.20498874             
P   1.07           H   22.91          G   0.15           U   2                  
Residuals in seconds of arc
210115 F51  0.6+  0.1+    220126 H21  0.1-  0.4+    220212 I52  0.3+  0.1-
210115 F51  0.4-  0.3+    220126 H21  0.4-  0.3+    220212 I52  0.2-  0.4+
220109 F52  0.1-  0.2+    220127 I52  0.3+  0.3+    220301 291  0.0   0.2-
220109 F52  0.2-  0.2-    220127 I52  0.2+  0.3-    220301 291  0.2-  0.1+
220109 F52  0.2-  0.1-    220127 I52  0.1-  0.2-    220301 T12  0.1-  0.4-
220125 F52  0.0   0.1+    220128 033  0.3-  0.3+    231122 F52  0.2+  0.1+
220125 F52  0.2-  0.1+    220128 033  0.0   0.3+    231122 F52  0.0   0.1-
220125 F52  0.2-  0.2+    220128 033  0.1-  0.1-    231122 F52  0.2-  0.1-
220125 F52  0.0   0.1-    220131 I52  0.7+  0.6-    231213 F51  0.1-  0.3+
220125 F52  0.0   0.5-    220131 I52  0.3-  0.3-    231213 F51  0.1-  0.0
220125 F52  0.3+  0.1-    220211 F52  0.4+  0.2-    231213 F51  0.3-  0.1-
220126 I52  0.1+  0.2-    220211 F52  0.2+  0.5+    231218 T12  0.2+  0.2+
220126 I52  0.1+  0.0     220211 F52  0.0   0.4-    231218 T12  0.2+  0.1+
220126 H21  0.5-  0.0     220212 I52  0.1+  0.1+

Ephemeris:
2022 BB3                 a,e,i = 1.04, 0.32, 11                  q = 0.7141
Date    TT    R. A. (2000) Decl.     Delta      r    Elong.  Phase     V
2023 11 26    05 46 09.0 +03 15 13   0.4033  1.3506   149.7    21.7    22.6
...
2023 12 11    04 58 41.9 +06 29 33   0.3951  1.3681   163.4    11.9    22.3
...
2023 12 19    04 33 38.6 +08 45 49   0.4110  1.3729   157.6    15.9    22.5
...
2023 12 25    04 17 28.5 +10 32 44   0.4316  1.3744   150.0    21.0    22.8
2023 12 26    04 15 04.1 +10 50 33   0.4357  1.3745   148.7    21.8    22.9
2023 12 27    04 12 44.9 +11 08 20   0.4400  1.3745   147.3    22.7    22.9
...
2024 01 02    04 00 45.0 +12 53 25   0.4688  1.3736   139.4    27.8    23.2
...
2024 01 10    03 49 54.9 +15 07 38   0.5144  1.3697   129.6    33.6    23.6
...
2024 01 25    03 43 57.3 +18 59 05   0.6125  1.3538   113.9    41.7    24.1

A. U. Tomatic                (C) Copyright 2023 MPC           M.P.E.C. 2023-Y87





More information about the Iaude mailing list